Regional Weather Roundup
Issued by NWS Wakefield, VA

Home | Current Version | Previous Version | Graphics & Text | Print | Product List | Glossary On
Versions: 1 2 3 4 5 6 7 8 9 10 11 12 13 14 15 16 17 18 19 20 21 22 23 24 25 26 27 28 29 30 31 32 33 34 35 36 37 38 39 40 41 42 43 44 45 46 47 48 49 50
000
ASUS41 KAKQ 131615
RWRAKQ

REGIONAL WEATHER ROUNDUP
NATIONAL WEATHER SERVICE WAKEFIELD VA
1100 AM EST SAT FEB 13 2016

Note: "fair" indicates few or no clouds below 12,000 feet with no
significant weather and/or obstructions to visibility. * = Denotes
station may not report precipitation (e.g., rain,snow,etc.),
thunder or fog.

VAZ042-051-052>054-056-131700-
NORTHERN VIRGINIA

CITY           SKY/WX    TMP DP  RH WIND       PRES   REMARKS
WASH NATIONAL  PTSUNNY   22   0  38 NW20G28   30.29R WCI   7
DULLES         PTSUNNY   19   2  47 W22G32    30.27R WCI   2
FORT BELVOIR   PTSUNNY   23  -4  31 NW21G30   30.28R WCI   7
QUANTICO       FAIR      23   0  36 N23G38    30.30R WCI   7
FREDERICKSBRG* PTSUNNY   24   7  49 NW14G21   30.28R WCI  11
STAFFORD*      CLOUDY    23  -2  33 NW20G26   30.31S WCI   9
WARRENTON      PTSUNNY   24   6  46 N17G24    30.27R WCI  11
CULPEPER*      FAIR      22   0  38 W17G24    30.29R WCI   8
MANASSAS*      MOSUNNY   21   0  39 NW23G35   30.29R WCI   5
LEESBURG*      PTSUNNY   23   3  42 NW20G31   30.28R WCI   8
WINCHESTER     CLOUDY    19   0  42 W22G33    30.26S WCI   3
FRONT ROYAL*   FAIR      18   0  45 NW12G21   30.25R WCI   5
LURAY*         PTSUNNY   19  -2  38 W12G25    30.25R WCI   7
$$

VAZ048-049-060>072-079>083-131700-
CENTRAL AND SOUTH CENTRAL VIRGINIA

CITY           SKY/WX    TMP DP  RH WIND       PRES   REMARKS
RICHMOND       FAIR      27  -3  27 W17       30.27R WCI  14
CHESTERFIELD*  FAIR     N/A N/A N/A W17G26    30.28R
PETERSBURG*    FAIR      30 -13  14 NW17G24   30.28S WCI  18
HANOVER        FAIR      27  -2  28 W16G23    30.29R WCI  15
TAPPAHANNOCK*  FAIR      28   1  31 W13G20    30.25S WCI  17
QUINTON*       PTSUNNY   28  -1  28 W13G20    30.26R WCI  17
CHARLOTTSVILLE FAIR      22  -5  30 NW16G24   30.26R WCI   8
GORDONSVILLE*  FAIR      23  -4  29 NW12G22   30.27R WCI  12
ORANGE*        FAIR      27   0  31 NW10G18   30.28S WCI  17
LOUISA*        FAIR      27  -2  28 W18G28    30.25R WCI  13
BUMPASS*       PTSUNNY   26  -2  30 NW6G17    30.27R
FARMVILLE*     PTSUNNY   29  -4  24 W3        30.28R
CREWE*         FAIR      25  -3  29 W7G20     30.27R
FORT PICKETT*  CLOUDY    28  -4  24 NW6G16    30.27R
CHASE CITY*    FAIR      26  -6  24 W13G22    30.29R WCI  15
CLARKSVILLE*   FAIR      28  -4  24 NW14G26   30.30S WCI  17
SOUTH HILL*    FAIR      28  -2  26 W13G18    30.34R WCI  17
LAWRENCEVILLE* FAIR      28  -3  26 W9G20     30.28R
EMPORIA*       FAIR      30   1  29 W9        30.30R
$$

VAZ088>098-131700-
SOUTHEAST VIRGINIA

CITY           SKY/WX    TMP DP  RH WIND       PRES   REMARKS
NORFOLK        FAIR      28   0  29 NW12G23   30.24R WCI  18
VIRGINIA BEACH FAIR      31   7  36 NW22G32   30.23R WCI  18
NORFOLK NAVAL  FAIR      30   4  33 NW18      30.26R WCI  18
WEST POINT*    FAIR      28  -5  23 W14G23    30.27S WCI  17
SALUDA*        FAIR      26   2  34 NW12G23   30.24S WCI  16
NEWPORT NEWS   FAIR      29   3  33 NW13G23   30.25R WCI  19
LANGLEY AFB    FAIR      28   3  34 NW16      30.23R WCI  16
FORT EUSTIS    FAIR      29   3  33 NW17G25   30.24R WCI  17
WILLIAMSBURG*  FAIR      34   3  27 NW17G24   30.26R WCI  23
HR EXEC AP*    FAIR      30   5  34 N7G22     30.27R
FRANKLIN*      FAIR      29  -3  24 NW20G29   30.28R WCI  17
US460-WAKEFLD  FAIR      29  -3  25 W14G22    30.27R WCI  18
$$

VAZ020-022-025-037-045-131700-
WEST CENTRAL AND SOUTHWEST VIRGINIA

CITY           SKY/WX    TMP DP  RH WIND       PRES   REMARKS
STAUNTON*      PTSUNNY   23  -5  30 NW12G21   30.26R WCI  11
WAYNESBORO*    FAIR      19 -10  27 W12G23    30.21R WCI   6
HOT SPRINGS VA CLOUDY     6  -5  59 W24G37    29.99R WCI -15
LYNCHBURG      CLOUDY    21  -4  33 VRB7      30.29R
DANVILLE       FAIR      29  -1  27 N12G25    30.32R WCI  19
SOUTH BOSTON*  FAIR      27  -2  28 NW13      30.32R WCI  16
MARTINSVILLE   FAIR      23  -3  31 NW16G22   30.34R WCI  10
ROANOKE        FAIR      21  -3  35 NW18G25   30.31R WCI   6
BLACKSBURG     PTSUNNY   16   1  50 W20G30    30.25S WCI   0
DUBLIN*        PTSUNNY   19   2  48 NW26      30.25R WCI   0
MARION*        CLOUDY    15   1  53 W18G28    30.24R WCI  -2
HILLSVILLE*    FAIR      13  -1  52 NW25G33   30.16R WCI  -6
RICHLANDS*     LGT SNOW  11   4  75 NW12G18   30.27R VSB 3/4 WCI  -3
WISE*          PTSUNNY   18   0  45 NW15G22   30.30R WCI   3
ABINGDON*      LGT SNOW  18   4  56 NW7       30.33R
$$

MDZ021>025-VAZ099-100-131700-
SOUTHERN MARYLAND AND THE DELMARVA PENINSULA

CITY           SKY/WX    TMP DP  RH WIND       PRES   REMARKS
PATUXENT RIVER PTSUNNY   23   7  50 NW25G33   30.24R WCI   7
BAY BRIDGE APT   N/A     23   0  36 W17G29    30.24R WCI   9
LEONARDTOWN    PTSUNNY   23   1  39 MISG      30.26R
DOVER          PTSUNNY   24   2  38 W26G36    30.14S WCI   7
GEORGETOWN     FLURRIES  24   2  38 NW20G31   30.17R WCI  10
EASTON         MOSUNNY   25   9  50 NW23G37   30.25R WCI  10
CAMBRIDGE      MOSUNNY   25   1  36 NW18G30   30.22R WCI  11
SALISBURY      CLOUDY    25   5  42 NW16G28   30.18R WCI  12
OCEAN CITY     MOSUNNY   25   3  38 NW20G35   30.17R WCI  11
WALLOPS ISLAND PTSUNNY   26  12  55 NW18G26   30.20R WCI  13
ACCOMACK*      PTSUNNY   28   3  34 NW25G33   30.22R WCI  14
$$

NCZ012>017-030>032-131700-
NORTH CENTRAL AND EASTERN NORTH CAROLINA

CITY           SKY/WX    TMP DP  RH WIND       PRES   REMARKS
ROANOKE RAPIDS FAIR      30   0  27 NW12G28   30.30R WCI  21
RALEIGH        MOSUNNY   31   3  30 VRB6G16   30.31R
ELIZABETH CITY SUNNY     29  10  45 NW21G31   30.24R WCI  16
AHOSKIE*         N/A    N/A N/A N/A NW6       30.28
EDENTON*       SUNNY     32  10  40 NW13G24   30.26R WCI  23
CURRITUCK*     NOT AVBL
KILL DEVIL HLS NOT AVBL
MANTEO         NOT AVBL
CAPE HATTERAS  PTSUNNY   35  22  58 VRB7      30.23R
TARBORO*       FAIR      33   6  33 NW12G20   30.30R WCI  24
GOLDSBORO      SUNNY     32   9  37 N16G22    30.28R WCI  21
WASHINGTON     SUNNY     32   6  34 NW13G20   30.27R WCI  22
GREENVILLE     SUNNY     32   5  32 NW16G23   30.29R WCI  21
NEW BERN       MOSUNNY   34  19  54 NW16G24   30.27R WCI  24
WILMINGTON     SUNNY     40  16  37 N14G22    30.26S
$$

VAZ048-131700-
ELSEWHERE

CITY           SKY/WX    TMP DP  RH WIND       PRES   REMARKS
HARRISBURG PA  PTSUNNY   16   1  51 NW24G37   30.19R BLWGSNOWWCI  -2
BALTIMORE      MOSUNNY   21  -5  31 W22G35    30.23R WCI   5
ANNAPOLIS      SUNNY     21  -4  33 W18G32    30.24R WCI   6
ANDREWS AFB    FAIR      20   3  46 NW22G33   30.23R WCI   4
PHILADELPHIA   PTSUNNY   21   1  41 W22G31    30.15R WCI   5
HENDERSON NC   SUNNY     28  -7  22 NW15G24   30.30R WCI  16
GREENSBORO     MOSUNNY   27  -3  27 NW21G30   30.29R WCI  13
ROCKY MOUNT    SUNNY     30   2  30 NW18G25   30.31R WCI  18
$$

VAZ100-131700-
MARINE

STATION/POSITION TIME  TEMP    WIND        PRES    WAVE   SWELL
                       AIR SEA DIR/SP/G            HT/PER HT/PER
                 (UTC) (F)     (DEG/KT/KT) (MB)    (FT/S) (FT/S)
BRANDYWINE LGT   1500   22     330/ 23/ 30 1020.3R
CAPE MAY NJ      1500   24 36  310/ 23/ 33 1020.2R
LEWES DE         1500   24 37  330/ 27/ 32 1020.8R
15NM E FENWICK I 1550   26 43              1020.0R   7/ 6
OCEAN-CITY-INLET 1500   26 39  320/ 19/ 23 1020.0R
WACHAPREAGUE VA  1500   26 33  300/  5/ 15 1022.4R
THOMAS POINT MD  1600   19 36  290/ 25/ 28 1024.3R
GOOSES REEF MD   1600   23 37  320/ 21/ 27 1024.8R   3/ 4
COVE POINT MD    1500   20     340/ 19/ 26 1024.0R
SOLOMONS ISLAND  1500   22 38  310/ 14/ 22   N/A
BISHOPS HEAD MD  1506   22 30  300/ 24/ 28 1022.6R
PINEY POINT MD   1500          340/ 30/ 33   N/A
POTOMAC MD       1600   25 38  310/ 25/ 33 1022.6R   3/ 3
CAMBRIDGE MD     1500   23 35  300/ 19/ 22 1022.2R
LEWISETTA VA     1500   24 35  340/ 20/ 27 1023.5R
RAPPAHANNOCK LGT 1500          300/ 25/ 30 1023.0R
STINGRAY PT      1600   26 39  320/ 21/ 25 1023.6R   3/ 3
YORK RVR RNG VA  1500   26     340/ 26/ 32 1022.8R
YORKTOWN VA      1500   27 39  320/ 23/ 28 1023.7R
JAMESTOWN VA     1600   26 40  310/ 17/ 23   N/A     0
DOMINION TERM VA 1500   27     340/ 13/ 19 1023.8R
KIPTOPEKE VA     1500      37  330/ 24/ 27   N/A
CHES BAY BRIDGE  1500   27 40  310/ 24/ 30 1023.2R
CAPE HENRY VA    1500   26     320/ 27/ 32   N/A
CHESAPEAKE LGHT  1500   26     330/ 32/ 35 1023.1R
WILLOUBY STN VA  1500   26     320/ 20/ 24 1024.5R
CAPE HENRY BUOY  1528      43                N/A     7/ 6
1ST LANDING BUOY 1600      40                N/A     4/ 4
CAPE CHARLES BUO 1526      42                N/A     5/ 5   2/11
OFFSHORE WE BUOY 1521      45                N/A     9/ 6   2/11
64NM E OF VA BCH 1550   30 48  320/ 27/ 37 1020.8R   9/ 7   2/11
DUCK PIER NC     1500   28     330/ 25/ 29 1022.0R
44100 DUCK FRF   1524      46                N/A     7/ 6   2/11
44056 DUCK FRF   1511      42                N/A     5/ 6
OREGON INLET NC  1500   30 38  320/ 17/ 23 1022.8R
HATTERAS NC      1500   33 43  340/ 21/ 24 1022.4R
DIAMOND SHLS NC  1550   36 71  340/ 21/ 27 1022.7R   5/ 8
$$
 C1F1C2F2C3F3C4F4C5F5C6F6C7F7C8M1C9!


USA.gov is the U.S. government's official web portal to all federal, state and local government web resources and services.